FALCON 9 R/B, 60234

Orbit data source: Space-Track

FALCON 9 R/B, 60234 is space debris in HEO originally from a launch on Mon, 08 Jul 2024 UTC launched from the Air Force Eastern Test Range (AFETR). Debris objects in space refer to the collection of defunct objects orbiting the Earth. Examples of debris include non-operational satellites, rocket bodies, and fragments generated from explosions, collisions, or faulty payload assembly.

Loading next visibility...
Identifier
60234, 2024-127B
Orbit
HEO
Last TLE update
5 days ago
Origin
Manufacturer
SpaceX
Mission
Spacecraft
Bus & Motor
F9ST2, Unknown motor
Mass
~4,000 kg wet, ~4,000 kg dry
Launch date (UTC)
2024-07-08 (1 year ago)
Launch vehicle
Unknown
Launch site
Air Force Eastern Test Range (AFETR)
Object type
Payload
Rocket body
Debris
Shape & HBR
Cyl, 15.53 m
Radar Cross Section
39.980 m²

Expand to show TLE details & history

TLE from 5 days ago
0 FALCON 9 R/B
1 60234U 24127B   25178.36310225 -.00000335  00000-0  21355-2 0  9996
2 60234  25.7680  63.2254 8309985 264.2155   7.9666  1.03874863  3405
Epoch: 2025-06-27T08:42Z
TLE epoch observation values (Epoch: 2025-06-27T08:42:52.034Z)
Latitude
0.00158°
Longitude
16.99518°
Altitude
7,628.932 km
Speed
6.873 km/s
True Right ascension
04h 13m 42s
True Declination
0° 00' 06"
Sunlit
Object was in daylight at epoch
Visualization orbit readout
Latitude
18.76734°
Longitude
60.8625°
Altitude
31,021.957 km
Speed
3.411 km/s
Apparent Right ascension
06h 58m 59s
Apparent Declination
11° 14' 05"
Sunlit
Object is in daylight
Visualization observer readout
Local Sidereal Time
17:43:56
Azimuth
337.061° NNW
Elevation
-35.966°
Doppler factor
1
Orbital elements
Apogee altitude
69,037.846 km
Perigee altitude
582.772 km
Semi-major axis
41,188.446 km
Eccentricity
0.831
Inclination
25.768°
RAAN
63.2254°
Arg. of periapsis
264.2155°
True anomaly
Unknown
Mean anomaly
7.9666°
Eccentric anomaly
Unknown
Mean motion
0.25965 °/min
Orbital period
1,386.51 mins
BSTAR
0.0021355
Loading maneuver chart data...
Loading SW <> Apogee altitude chart data...
Loading historical data...
Loading historical data...
Loading historical data...
Loading historical data...
Loading historical data...
Loading historical data...
Loading historical data...
Other satellites on launch #127 in the year 2024 (2024-07-08 UTC)

FALCON 9 R/B Visibility forecast

Observer location: undefined°, undefined°

Span
Click to sort rows by Start time (UTC) header in descending order
Start Az.
Max El. time (UTC)
Max El. Az.
Max El.
End time (UTC)
End Az.
612 mins2025-07-02 16:10:16.543Z68.805° E2025-07-02 23:52:16.543Z155.585° SSE42.908°2025-07-03 02:22:16.543Z138.535° SSE
|